Regional Weather Roundup
Issued by NWS

Home | Current Version | Previous Version | Text Only | Print | Product List | Glossary Off
Versions: 1 2 3 4 5 6 7 8 9 10 11 12 13 14 15 16 17 18 19 20 21 22 23 24 25 26 27 28 29 30 31 32 33 34 35 36 37 38 39 40 41 42 43 44 45 46 47 48 49 50

113
ASUS45 KTFX 221410
RWRMT
MONTANA REGIONAL WEATHER ROUNDUP
NATIONAL WEATHER SERVICE GREAT FALLS MT
800 AM MDT SAT APR 22 2017

NOTE: "FAIR" INDICATES FEW OR NO CLOUDS BELOW 12000 FEET WITH NO
SIGNIFICANT WEATHER AND/OR OBSTRUCTIONS TO VISIBILITY.

MTZ001>007-043-221500-
WEST OF THE DIVIDE

CITY           SKY/WX    TMP DP  RH WIND       PRES   REMARKS
KALISPELL      MOSUNNY   36  34  92 CALM      30.19F
MISSOULA       MOSUNNY   33  31  92 S3        30.20F
BUTTE          CLOUDY    30  26  85 N5        30.23F
MULLAN PASS    MOSUNNY   30  28  92 SE13G22   30.08F WCI  20
ANACONDA         N/A     36  28  75 S6        30.22F WCI  31
DEER LODGE       N/A     32  28  86 SE5       30.25F
EUREKA           N/A     34  30  86 CALM      30.18F
HAMILTON         N/A     34  27  75 S3        30.20F
LIBBY            N/A     36  34  93 CALM      30.16F
PLAINS           N/A     32  28  85 CALM      30.17
RONAN            N/A     35  32  89 CALM      30.19F
$$

MTZ008-052>055-221500-
SOUTHWEST MONTANA

CITY           SKY/WX    TMP DP  RH WIND       PRES   REMARKS
BOZEMAN        SUNNY     36  33  89 NE3       30.26F
DILLON         CLOUDY    29  25  85 SW8       30.24F WCI  21
W YELLOWSTONE  CLOUDY    27  23  86 E5        30.28F
ENNIS          SUNNY     32  28  86 SW6       30.30F WCI  26
THREE FORKS      N/A     36  36 100 CALM      30.22F
TWIN BRIDGES     N/A     30  24  78 E3        30.21
$$

MTZ009-010-012-014-046-048-049-054-221500-
EAST SLOPES AND CENTRAL MONTANA

CITY           SKY/WX    TMP DP  RH WIND       PRES   REMARKS
CUT BANK       MOSUNNY   34  33  96 E3        30.18F FOG
GREAT FALLS    SUNNY     41  36  82 S7        30.22F
MALMSTROM AFB  SUNNY     40  38  93 SW9       30.22F
HELENA         CLOUDY    38  33  82 N6        30.24F
AUGUSTA          N/A     34  34  99 S3        30.19F
BOWMANS CRNR     N/A     36  34  94 S10       30.19F WCI  28
CHOTEAU          N/A     37  34  87 S5        30.21F
FAIRFIELD        N/A     38  34  85 S7        30.19F
POWER            N/A     37  37  99 S8        30.20F WCI  30
RAYNESFORD       N/A     39  37  92 E5        30.21F
ULM              N/A     40  38  91 SW5       30.22F
$$

MTZ011-013-016-021-045-047-050-051-221500-
NORTH CENTRAL MONTANA

CITY           SKY/WX    TMP DP  RH WIND       PRES   REMARKS
HAVRE          CLOUDY    43  39  86 E3        30.24F
LEWISTOWN      CLOUDY    38  36  92 CALM      30.26S
N BAR RANCH    CLOUDY    39  34  81 W6        30.28S
CHINOOK          N/A     43  37  81 CALM      30.26F
DENTON         PTSUNNY   39  38  95 MISG      30.21F
GEYSER           N/A     40  34  79 CALM      30.21F
GRASS RANGE    CLOUDY    41  37  86 W10       30.24S
JUDITH GAP       N/A     37  33  87 NW14      30.24F WCI  28
STANFORD         N/A     37  35  90 SE7       30.23F
WINIFRED       CLOUDY    39  38  94 W6        30.25F
$$

MTZ017>020-022>027-061-062-221500-
NORTHEAST MONTANA

CITY           SKY/WX    TMP DP  RH WIND       PRES   REMARKS
GLASGOW        CLOUDY    42  38  85 NE7       30.24S
JORDAN           N/A     42  39  89 W7        30.24S
SIDNEY         CLOUDY    43  41  93 N7        30.21S FOG
WOLF POINT     CLOUDY    47  40  76 NE10      30.23S
MALTA          CLOUDY    41  37  87 N5        30.27S
PLENTYWOOD       N/A     43  41  93 N10       30.21S
POPLAR           N/A     45  39  81 N7        30.23S
SCOBEY           N/A     39  34  82 N9        30.20
$$

MTZ028>42-056>058-221500-
SOUTHCENTRAL AND SOUTHEAST MONTANA

CITY           SKY/WX    TMP DP  RH WIND       PRES   REMARKS
BAKER          SUNNY     44  40  85 W8        30.23R
BILLINGS       PTSUNNY   41  35  79 NW9       30.28R
LIVINGSTON     SUNNY     38  33  82 SW3       30.27S
MILES CITY     SUNNY     43  39  86 NW13      30.25R
BIG TIMBER     SUNNY     37  32  81 NW5       30.29S
EKALAKA          N/A     43  40  89 SW6       30.20
LAUREL           N/A     41  33  73 CALM      30.24F
ROUNDUP          N/A     39  35  85 S6        30.16S
$$

REGIONAL REPORTS...DAKOTAS

CITY           SKY/WX    TMP DP  RH WIND       PRES   REMARKS
WILLISTON      CLOUDY    46  43  89 NE10      30.20R FOG
MINOT          PTSUNNY   45  42  89 NW14      30.18R
DICKINSON      SUNNY     46  40  79 S6        30.18S
BEACH            N/A     46  46 100 W10       30.24S
TIOGA          CLOUDY    41  41 100 NE15      30.20S FOG
WATFORD CITY     N/A     45  43  93 W9        30.18F
BISMARCK       SUNNY     47  39  74 S3        30.22F
GRAND FORKS    PTSUNNY   53  43  68 W6        30.17F
FARGO          SUNNY     52  41  66 SW14      30.21F
BUFFALO SD       N/A     44  40  85 W8        30.17R
RAPID CITY     SUNNY     41  35  79 CALM      30.26S
$$

REGIONAL REPORTS...WYOMING/IDAHO/WASHINGTON

CITY           SKY/WX    TMP DP  RH WIND       PRES   REMARKS
GILLETTE       CLOUDY    41  41 100 CALM      30.26R
SHERIDAN       CLOUDY    43  39  86 W9        30.27R
BUFFALO WY     CLOUDY    40  36  86 CALM      30.27R
CODY           CLOUDY    36  35  96 NE5       30.29R
YELLOWSTONE LA   N/A     24  23  96 CALM      30.29R
IDAHO FALLS    MOSUNNY   32  30  92 NE7       30.27R WCI  26
SALMON         CLOUDY    30  27  86 CALM      30.23S
BOISE          SUNNY     43  30  60 SE10      30.11F
SPOKANE        PTSUNNY   40  35  83 NE9       30.03F
$$

REGIONAL REPORTS...ALBERTA

CITY           SKY/WX    TMP DP  RH WIND       PRES   REMARKS
EDMONTON       CLOUDY    34  30  86 E10       30.25F WCI  26
CALGARY        MOSUNNY   36  30  80 VRB2      30.13F
LETHBRIDGE     PTSUNNY   34  32  93 S9        30.17F WCI  26
MEDICINE HAT   FOG       32  30  93 N3        30.23S VSB 1/4
WATERTON GATE    N/A     36  28  75 S12G17      N/A  WCI  27
MILK RIVER       N/A     34  32  93 SE5         N/A
$$

REGIONAL REPORTS...SASKATCHEWAN

CITY           SKY/WX    TMP DP  RH WIND       PRES   REMARKS
SWIFT CURRENT  MOSUNNY   37  34  87 CALM      30.26S
REGINA         CLOUDY    37  36  93 NE7       30.28R
SASKATOON      CLOUDY    34  28  80 NE14      30.32F WCI  24
VAL MARIE        N/A     39  36  87 NE6         N/A
ASSINIBOIA       N/A     34  27  75 E8          N/A  WCI  27
$$




USA.gov is the U.S. government's official web portal to all federal, state and local government web resources and services.